Location: LDNL
(36.4545°S, 141.6685°E)
Time: 04:12:36
(UTC+11:00)

Vanguard 2 - Pass Details

Date: 13 August 2022
Orbit: 552 x 2934 km, 32.9° (Epoch: 06 October)

Event Time Altitude Azimuth Distance (km) Brightness Sun altitude
Rises 19:29:51 0° 276° (W) 6,578 14.0 -18.9°
Reaches altitude 10° 19:34:36 10° 276° (W) 5,348 13.0 -19.8°
Maximum altitude 19:49:30 75° 358° (N) 1,932 9.4 -22.8°
Enters shadow 19:54:20 36° 74° (ENE) 2,310 9.4 -23.8°
Drops below altitude 10° 19:58:25 10° 81° (E) 3,357 - -24.6°
Sets 20:00:44 0° 83° (E) 4,076 - -25.1°
